Regional Weather Roundup
Issued by NWS Green Bay, WI

Home | Current Version | Previous Version | Graphics & Text | Print | Product List | Glossary Off
Versions: 1 2 3 4 5 6 7 8 9 10 11 12 13 14 15 16 17 18 19 20 21 22 23 24 25 26 27 28 29 30 31 32 33 34 35 36 37 38 39 40 41 42 43 44 45 46 47 48 49 50

000
ASUS43 KGRB 010259
RWRGRB

NORTH-CENTRAL AND NORTHEAST WISCONSIN REGIONAL WEATHER ROUNDUP
NATIONAL WEATHER SERVICE GREEN BAY WI
900 PM CST SAT JAN 31 2015

WIZ005-009-010>012-018-019-010400-
NORTH CENTRAL WISCONSIN

CITY           SKY/WX    TMP DP  RH WIND       PRES   REMARKS
IRONWOOD       CLOUDY    12   5  73 NE7       30.26S WCI   2
MANITOWISH WTR NOT AVBL
ARBOR VITAE    NOT AVBL
EAGLE RIVER    NOT AVBL
LAND O LAKES   NOT AVBL
RHINELANDER    CLOUDY    12   4  70 NE7       30.22S WCI   1
PHILLIPS       NOT AVBL
ANTIGO         NOT AVBL
TOMAHAWK       NOT AVBL
MERRILL        NOT AVBL
$$

WIZ013-073-010400-
NORTHEAST WISCONSIN

CITY           SKY/WX    TMP DP  RH WIND       PRES   REMARKS
IRON MOUNTAIN  CLOUDY    12   3  67 NE12      30.26R WCI  -2
MARINETTE      CLOUDY    16   5  62 NE14      30.29S WCI   1
$$

WIZ017-030-035>037-045-010400-
CENTRAL WISCONSIN

CITY           SKY/WX    TMP DP  RH WIND       PRES   REMARKS
MEDFORD        NOT AVBL
WAUSAU         CLOUDY    20  11  68 NE9       30.18F WCI   9
MOSINEE        CLOUDY    21  16  79 N6        30.19S
MARSHFIELD     CLOUDY    24  15  68 NE9       30.17F
WISC RAPIDS    CLOUDY    26  16  65 NE8       30.19F
STEVENS POINT  NOT AVBL
WAUPACA        NOT AVBL
SHAWANO        NOT AVBL
CLINTONVILLE   NOT AVBL
$$

WIZ038-039-048-051-010400-
FOX VALLEY

CITY           SKY/WX    TMP DP  RH WIND       PRES   REMARKS
NWS GREEN BAY  CLOUDY    20  13  74 NE24      30.26R WCI   3
APPLETON       CLOUDY    25  18  74 NE12      30.22R
OSHKOSH        CLOUDY    26  19  74 E7        30.19F
FOND DU LAC    CLOUDY    27  18  69 E7        30.19F
$$

WIZ022-050-052-010400-
EAST CENTRAL WISCONSIN

CITY           SKY/WX    TMP DP  RH WIND       PRES   REMARKS
STURGEON BAY   CLOUDY    18   7  62 NE15G22   30.29S WCI   3
MANITOWOC      NOT AVBL
SHEBOYGAN      CLOUDY    27  19  72 NE9       30.20F
$$

LMZ563-521-522-541>543-010400-
LAKESHORE

STATION/POSITION TIME  TEMP    WIND        PRES    VSBY  WAVE
                       AIR SEA DIR/SP/G                  HT/PER
                 (UTC) (F)     (DEG/KT/KT) (MB)    (MI)  (FT/S)
SHEBOYGAN LKSHOR 0200   29      20/ 15/ 17 1024.4F
KEWAUNEE LKSHORE 0200   24      40/ 22/ 27 1023.5R
NORTHPORT PIER   0200   18     360/ 20/ 27 1025.4S
SISTER BAY LKSHO 0200   17      20/ 16/ 22   N/A
CHAMBERS ISLAND  0200   18      10/ 13/ 18 1025.7R
MENOMINEE LKSHOR 0200   18      20/ 19     1026.3R
$$



USA.gov is the U.S. government's official web portal to all federal, state and local government web resources and services.